QPF
0.00 0.00 0.00 0.00 0.00 0.00 0.00 0.00 0.00 0.00 0.00 0.00 0.00 0.00 0.00 0.00 0.01 0.01 0.00 0.00 0.00 0.00 0.00 0.00 0.00 0.00 0.01 0.01 0.01 0.02 0.02 0.04 0.05 0.03 0.01 0.00 0.00 0.00 0.01 0.01 0.04 0.06 0.07
0.00 0.00 0.00 0.00 0.00 0.00 0.00 0.00 0.00 0.00 0.00 0.00 0.00 0.00 0.01 0.01 0.00 0.00 0.00 0.00 0.00 0.00 0.00 0.00 0.00 0.00 0.00 0.01 0.02 0.02 0.03 0.04 0.05 0.04 0.01 0.00 0.00 0.01 0.01 0.03 0.06 0.07 0.06
0.00 0.00 0.00 0.00 0.00 0.00 0.00 0.00 0.00 0.00 0.00 0.00 0.00 0.00 0.00 0.00 0.00 0.00 0.00 0.00 0.00 0.00 0.00 0.00 0.00 0.00 0.01 0.02 0.03 0.03 0.03 0.03 0.03 0.03 0.01 0.01 0.01 0.02 0.05 0.08 0.07 0.06 0.04
0.00 0.00 0.00 0.00 0.00 0.00 0.00 0.00 0.00 0.00 0.00 0.00 0.00 0.00 0.00 0.00 0.00 0.00 0.00 0.00 0.00 0.00 0.00 0.00 0.00 0.01 0.03 0.04 0.04 0.03 0.02 0.02 0.02 0.02 0.02 0.01 0.02 0.04 0.07 0.09 0.06 0.04 0.03
0.00 0.00 0.00 0.00 0.00 0.00 0.00 0.00 0.00 0.00 0.00 0.00 0.00 0.00 0.00 0.00 0.00 0.00 0.00 0.00 0.00 0.00 0.00 0.00 0.01 0.04 0.06 0.03 0.02 0.01 0.02 0.03 0.03 0.04 0.03 0.02 0.03 0.06 0.07 0.06 0.04 0.03 0.02
0.00 0.00 0.00 0.00 0.00 0.00 0.00 0.00 0.00 0.00 0.00 0.00 0.00 0.00 0.00 0.00 0.00 0.00 0.00 0.00 0.00 0.00 0.00 0.00 0.01 0.02 0.02 0.01 0.01 0.01 0.02 0.05 0.07 0.06 0.05 0.03 0.03 0.05 0.06 0.05 0.04 0.04 0.04
0.00 0.00 0.00 0.00 0.00 0.00 0.00 0.00 0.00 0.00 0.00 0.00 0.00 0.00 0.00 0.00 0.00 0.00 0.00 0.00 0.00 0.00 0.00 0.00 0.01 0.01 0.00 0.00 0.00 0.01 0.03 0.07 0.09 0.08 0.05 0.02 0.03 0.04 0.04 0.05 0.03 0.03 0.03
0.00 0.00 0.00 0.00 0.00 0.00 0.00 0.00 0.00 0.00 0.00 0.00 0.00 0.00 0.00 0.00 0.00 0.00 0.00 0.00 0.00 0.00 0.00 0.00 0.01 0.00 0.00 0.00 0.01 0.01 0.04 0.06 0.07 0.05 0.03 0.02 0.03 0.04 0.04 0.03 0.02 0.02 0.02
0.00 0.00 0.00 0.00 0.00 0.00 0.00 0.00 0.00 0.00 0.00 0.00 0.00 0.00 0.00 0.00 0.00 0.00 0.00 0.00 0.00 0.00 0.00 0.00 0.00 0.00 0.01 0.01 0.02 0.04 0.06 0.09 0.08 0.05 0.05 0.06 0.06 0.06 0.04 0.04 0.03 0.03 0.02
0.00 0.00 0.00 0.00 0.00 0.00 0.00 0.00 0.00 0.00 0.00 0.00 0.00 0.00 0.00 0.00 0.00 0.00 0.00 0.00 0.00 0.00 0.00 0.00 0.00 0.01 0.01 0.02 0.04 0.07 0.11 0.14 0.11 0.07 0.07 0.09 0.08 0.07 0.08 0.07 0.05 0.04 0.02
0.00 0.00 0.00 0.00 0.00 0.00 0.00 0.00 0.00 0.00 0.00 0.00 0.00 0.00 0.00 0.00 0.00 0.00 0.00 0.00 0.00 0.00 0.00 0.00 0.01 0.02 0.03 0.04 0.08 0.11 0.15 0.19 0.15 0.08 0.06 0.07 0.08 0.07 0.07 0.06 0.04 0.02 0.01
0.00 0.00 0.00 0.00 0.00 0.00 0.00 0.00 0.00 0.00 0.00 0.00 0.00 0.00 0.00 0.00 0.00 0.00 0.00 0.00 0.00 0.01 0.02 0.03 0.03 0.04 0.04 0.07 0.12 0.17 0.21 0.22 0.15 0.07 0.03 0.03 0.04 0.04 0.05 0.04 0.02 0.01 0.00
0.00 0.00 0.00 0.00 0.00 0.00 0.01 0.00 0.00 0.00 0.00 0.00 0.00 0.00 0.00 0.00 0.00 0.00 0.00 0.00 0.00 0.02 0.04 0.05 0.05 0.04 0.06 0.11 0.18 0.24 0.26 0.22 0.15 0.08 0.04 0.03 0.03 0.03 0.03 0.02 0.01 0.01 0.01
0.00 0.00 0.00 0.00 0.00 0.00 0.00 0.00 0.00 0.00 0.00 0.00 0.00 0.00 0.00 0.00 0.00 0.00 0.00 0.00 0.00 0.01 0.03 0.03 0.03 0.04 0.08 0.15 0.21 0.26 0.27 0.24 0.18 0.10 0.05 0.05 0.04 0.04 0.03 0.02 0.01 0.02 0.01
0.00 0.00 0.00 0.00 0.00 0.00 0.00 0.00 0.00 0.00 0.00 0.00 0.00 0.00 0.00 0.00 0.00 0.00 0.00 0.00 0.01 0.02 0.02 0.02 0.02 0.05 0.10 0.16 0.21 0.23 0.24 0.24 0.20 0.12 0.06 0.05 0.05 0.05 0.04 0.03 0.03 0.02 0.02
0.00 0.00 0.00 0.00 0.00 0.00 0.00 0.00 0.00 0.00 0.00 0.00 0.00 0.00 0.00 0.00 0.00 0.00 0.00 0.01 0.01 0.02 0.02 0.02 0.04 0.08 0.12 0.16 0.20 0.21 0.21 0.20 0.17 0.11 0.06 0.05 0.05 0.06 0.06 0.04 0.03 0.02 0.01
0.00 0.00 0.00 0.00 0.00 0.00 0.00 0.00 0.00 0.00 0.00 0.00 0.00 0.00 0.00 0.00 0.00 0.00 0.00 0.00 0.01 0.01 0.02 0.04 0.06 0.10 0.13 0.14 0.16 0.18 0.18 0.17 0.14 0.10 0.06 0.05 0.05 0.06 0.05 0.03 0.02 0.01 0.01
0.00 0.00 0.00 0.00 0.00 0.00 0.00 0.00 0.00 0.00 0.01 0.01 0.00 0.00 0.00 0.00 0.01 0.00 0.00 0.00 0.01 0.02 0.03 0.06 0.09 0.11 0.12 0.13 0.13 0.14 0.16 0.15 0.13 0.09 0.07 0.05 0.05 0.04 0.03 0.02 0.01 0.00 0.00
0.00 0.00 0.00 0.00 0.00 0.00 0.00 0.00 0.00 0.00 0.00 0.01 0.01 0.01 0.01 0.01 0.01 0.01 0.01 0.01 0.02 0.03 0.05 0.08 0.10 0.12 0.12 0.11 0.10 0.11 0.13 0.13 0.11 0.09 0.07 0.05 0.03 0.02 0.02 0.01 0.01 0.00 0.00
0.00 0.00 0.00 0.00 0.00 0.00 0.00 0.00 0.00 0.00 0.00 0.01 0.01 0.01 0.02 0.02 0.03 0.02 0.02 0.01 0.02 0.03 0.05 0.08 0.10 0.11 0.11 0.09 0.08 0.07 0.08 0.08 0.08 0.07 0.06 0.04 0.02 0.01 0.01 0.01 0.01 0.01 0.01
0.00 0.00 0.00 0.00 0.00 0.00 0.00 0.00 0.00 0.00 0.00 0.01 0.01 0.02 0.04 0.04 0.04 0.04 0.04 0.03 0.03 0.03 0.04 0.06 0.08 0.10 0.10 0.08 0.06 0.04 0.04 0.04 0.04 0.04 0.04 0.03 0.02 0.01 0.01 0.01 0.01 0.01 0.00
0.00 0.00 0.00 0.00 0.00 0.00 0.00 0.00 0.00 0.00 0.00 0.00 0.01 0.02 0.04 0.04 0.04 0.05 0.04 0.04 0.03 0.03 0.03 0.04 0.06 0.07 0.08 0.09 0.07 0.05 0.03 0.03 0.03 0.02 0.02 0.03 0.02 0.02 0.02 0.01 0.01 0.00 0.00
0.00 0.00 0.00 0.00 0.00 0.00 0.00 0.00 0.00 0.00 0.00 0.00 0.01 0.01 0.03 0.04 0.05 0.06 0.05 0.04 0.04 0.03 0.02 0.03 0.04 0.07 0.07 0.07 0.06 0.06 0.06 0.04 0.02 0.02 0.02 0.03 0.03 0.03 0.02 0.01 0.01 0.01 0.01
0.00 0.00 0.00 0.00 0.00 0.00 0.00 0.00 0.00 0.00 0.00 0.00 0.00 0.01 0.02 0.03 0.04 0.06 0.06 0.05 0.05 0.04 0.04 0.04 0.04 0.05 0.05 0.05 0.04 0.05 0.05 0.04 0.02 0.02 0.02 0.02 0.02 0.02 0.01 0.01 0.02 0.01 0.00
0.00 0.00 0.00 0.00 0.00 0.00 0.00 0.00 0.00 0.00 0.00 0.00 0.00 0.00 0.01 0.01 0.03 0.04 0.05 0.06 0.06 0.06 0.06 0.06 0.06 0.05 0.04 0.04 0.03 0.03 0.04 0.04 0.03 0.02 0.02 0.02 0.02 0.02 0.02 0.02 0.02 0.01 0.00
0.00 0.00 0.00 0.00 0.00 0.00 0.00 0.00 0.00 0.00 0.00 0.00 0.00 0.00 0.00 0.01 0.02 0.02 0.03 0.04 0.05 0.06 0.07 0.08 0.08 0.05 0.03 0.02 0.02 0.03 0.03 0.02 0.02 0.02 0.02 0.02 0.02 0.02 0.03 0.02 0.01 0.00 0.00
MSLP
1020.76 1020.89 1021.01 1021.08 1021.08 1020.99 1020.83 1020.59 1020.31 1020.02 1019.73 1019.48 1019.27 1019.10 1018.97 1018.84 1018.70 1018.54 1018.32 1018.04 1017.69 1017.27 1016.80 1016.27 1015.71 1015.13 1014.54 1013.94 1013.35 1012.77 1012.20 1011.64 1011.08 1010.53 1010.00 1009.50 1009.04 1008.65 1008.34 1008.13 1008.02 1007.99 1008.02
1020.85 1020.93 1020.98 1020.99 1020.94 1020.81 1020.62 1020.38 1020.10 1019.82 1019.55 1019.31 1019.11 1018.95 1018.81 1018.66 1018.50 1018.30 1018.03 1017.70 1017.30 1016.82 1016.29 1015.72 1015.12 1014.51 1013.91 1013.31 1012.72 1012.15 1011.59 1011.04 1010.49 1009.96 1009.45 1008.98 1008.57 1008.25 1008.03 1007.90 1007.87 1007.91 1007.97
1020.96 1020.97 1020.95 1020.88 1020.76 1020.59 1020.36 1020.11 1019.83 1019.57 1019.32 1019.11 1018.93 1018.78 1018.65 1018.50 1018.32 1018.08 1017.78 1017.40 1016.95 1016.42 1015.85 1015.23 1014.60 1013.96 1013.33 1012.72 1012.12 1011.54 1010.98 1010.42 1009.88 1009.37 1008.89 1008.48 1008.14 1007.91 1007.78 1007.76 1007.82 1007.91 1007.98
1021.06 1020.99 1020.89 1020.74 1020.54 1020.30 1020.04 1019.77 1019.51 1019.26 1019.05 1018.88 1018.74 1018.62 1018.49 1018.35 1018.16 1017.90 1017.57 1017.15 1016.65 1016.08 1015.46 1014.81 1014.13 1013.46 1012.80 1012.15 1011.53 1010.92 1010.33 1009.76 1009.22 1008.73 1008.29 1007.95 1007.70 1007.58 1007.57 1007.65 1007.80 1007.96 1008.04
1021.09 1020.95 1020.75 1020.52 1020.25 1019.96 1019.67 1019.39 1019.14 1018.93 1018.76 1018.63 1018.54 1018.45 1018.35 1018.21 1018.01 1017.73 1017.37 1016.92 1016.38 1015.77 1015.11 1014.42 1013.70 1012.98 1012.28 1011.59 1010.91 1010.26 1009.64 1009.05 1008.50 1008.02 1007.64 1007.36 1007.22 1007.21 1007.33 1007.54 1007.80 1008.03 1008.14
1021.01 1020.79 1020.52 1020.21 1019.88 1019.55 1019.25 1018.98 1018.75 1018.59 1018.47 1018.40 1018.35 1018.30 1018.22 1018.08 1017.87 1017.57 1017.17 1016.68 1016.10 1015.46 1014.75 1014.02 1013.26 1012.49 1011.74 1010.99 1010.26 1009.56 1008.89 1008.28 1007.73 1007.28 1006.95 1006.75 1006.72 1006.84 1007.09 1007.43 1007.80 1008.11 1008.27
1020.82 1020.54 1020.20 1019.84 1019.47 1019.13 1018.82 1018.58 1018.40 1018.29 1018.23 1018.21 1018.20 1018.18 1018.10 1017.96 1017.72 1017.39 1016.95 1016.42 1015.79 1015.10 1014.35 1013.57 1012.77 1011.96 1011.15 1010.35 1009.57 1008.83 1008.13 1007.50 1006.97 1006.55 1006.28 1006.18 1006.26 1006.50 1006.88 1007.34 1007.82 1008.23 1008.47
1020.53 1020.21 1019.84 1019.45 1019.07 1018.74 1018.47 1018.27 1018.14 1018.09 1018.09 1018.11 1018.13 1018.11 1018.03 1017.85 1017.58 1017.20 1016.71 1016.11 1015.44 1014.70 1013.90 1013.08 1012.23 1011.38 1010.53 1009.69 1008.88 1008.12 1007.42 1006.80 1006.30 1005.95 1005.76 1005.75 1005.94 1006.30 1006.79 1007.36 1007.93 1008.43 1008.75
1020.21 1019.86 1019.49 1019.11 1018.76 1018.47 1018.24 1018.10 1018.04 1018.04 1018.08 1018.14 1018.16 1018.13 1018.01 1017.79 1017.46 1017.01 1016.45 1015.80 1015.06 1014.27 1013.42 1012.55 1011.67 1010.79 1009.91 1009.07 1008.26 1007.51 1006.84 1006.27 1005.84 1005.57 1005.48 1005.58 1005.86 1006.31 1006.89 1007.54 1008.18 1008.74 1009.14
1019.93 1019.59 1019.24 1018.90 1018.61 1018.38 1018.22 1018.15 1018.14 1018.19 1018.26 1018.31 1018.32 1018.25 1018.08 1017.79 1017.39 1016.86 1016.23 1015.50 1014.70 1013.85 1012.96 1012.06 1011.15 1010.25 1009.37 1008.54 1007.76 1007.06 1006.46 1005.98 1005.66 1005.50 1005.51 1005.72 1006.10 1006.62 1007.24 1007.92 1008.59 1009.18 1009.62
1019.75 1019.45 1019.15 1018.88 1018.66 1018.51 1018.43 1018.42 1018.46 1018.53 1018.60 1018.64 1018.61 1018.48 1018.23 1017.86 1017.37 1016.77 1016.06 1015.26 1014.40 1013.50 1012.58 1011.64 1010.72 1009.82 1008.96 1008.17 1007.45 1006.84 1006.34 1005.99 1005.79 1005.76 1005.90 1006.20 1006.65 1007.22 1007.85 1008.52 1009.16 1009.73 1010.17
1019.73 1019.49 1019.27 1019.08 1018.95 1018.88 1018.86 1018.90 1018.97 1019.05 1019.09 1019.08 1018.98 1018.78 1018.45 1017.99 1017.42 1016.73 1015.96 1015.10 1014.20 1013.26 1012.31 1011.36 1010.43 1009.55 1008.73 1007.99 1007.36 1006.85 1006.48 1006.27 1006.22 1006.32 1006.58 1006.98 1007.48 1008.06 1008.67 1009.29 1009.86 1010.36 1010.74
1019.86 1019.70 1019.57 1019.48 1019.43 1019.43 1019.47 1019.54 1019.61 1019.66 1019.66 1019.58 1019.39 1019.10 1018.68 1018.15 1017.50 1016.75 1015.92 1015.04 1014.10 1013.15 1012.19 1011.24 1010.33 1009.48 1008.70 1008.04 1007.50 1007.10 1006.86 1006.79 1006.88 1007.11 1007.48 1007.95 1008.49 1009.06 1009.62 1010.15 1010.62 1011.01 1011.31
1020.12 1020.06 1020.02 1020.02 1020.05 1020.11 1020.18 1020.26 1020.30 1020.30 1020.22 1020.05 1019.77 1019.38 1018.88 1018.27 1017.57 1016.79 1015.94 1015.05 1014.11 1013.17 1012.22 1011.30 1010.41 1009.60 1008.88 1008.28 1007.83 1007.54 1007.42 1007.47 1007.68 1008.03 1008.48 1009.00 1009.55 1010.09 1010.59 1011.03 1011.39 1011.66 1011.86
1020.47 1020.50 1020.55 1020.63 1020.72 1020.82 1020.91 1020.95 1020.95 1020.87 1020.70 1020.43 1020.05 1019.57 1019.00 1018.34 1017.61 1016.82 1015.99 1015.11 1014.21 1013.30 1012.40 1011.52 1010.68 1009.91 1009.25 1008.72 1008.34 1008.13 1008.10 1008.25 1008.54 1008.96 1009.47 1010.02 1010.56 1011.06 1011.50 1011.84 1012.10 1012.27 1012.38
1020.86 1020.97 1021.10 1021.25 1021.39 1021.50 1021.57 1021.57 1021.49 1021.32 1021.04 1020.67 1020.20 1019.64 1019.02 1018.33 1017.60 1016.84 1016.04 1015.22 1014.39 1013.55 1012.71 1011.89 1011.11 1010.40 1009.78 1009.30 1008.98 1008.83 1008.86 1009.05 1009.40 1009.85 1010.37 1010.92 1011.44 1011.90 1012.27 1012.55 1012.73 1012.83 1012.88
1021.25 1021.43 1021.63 1021.83 1021.99 1022.10 1022.13 1022.07 1021.91 1021.64 1021.26 1020.79 1020.23 1019.61 1018.95 1018.27 1017.56 1016.84 1016.12 1015.38 1014.64 1013.88 1013.13 1012.39 1011.67 1011.03 1010.46 1010.03 1009.74 1009.62 1009.66 1009.87 1010.21 1010.66 1011.17 1011.68 1012.17 1012.59 1012.92 1013.15 1013.29 1013.37 1013.41
1021.63 1021.88 1022.13 1022.35 1022.52 1022.61 1022.60 1022.47 1022.22 1021.85 1021.38 1020.82 1020.20 1019.54 1018.87 1018.20 1017.53 1016.88 1016.24 1015.60 1014.96 1014.31 1013.66 1013.00 1012.37 1011.78 1011.27 1010.86 1010.59 1010.47 1010.51 1010.69 1011.00 1011.40 1011.86 1012.33 1012.77 1013.14 1013.44 1013.66 1013.80 1013.89 1013.96
1022.02 1022.31 1022.59 1022.83 1022.99 1023.05 1022.98 1022.79 1022.46 1022.02 1021.47 1020.86 1020.19 1019.52 1018.85 1018.21 1017.60 1017.02 1016.47 1015.93 1015.39 1014.84 1014.28 1013.72 1013.16 1012.63 1012.16 1011.78 1011.51 1011.38 1011.38 1011.52 1011.77 1012.11 1012.50 1012.90 1013.28 1013.62 1013.89 1014.11 1014.27 1014.41 1014.54
1022.42 1022.74 1023.04 1023.27 1023.42 1023.44 1023.33 1023.09 1022.71 1022.21 1021.62 1020.97 1020.29 1019.62 1018.97 1018.37 1017.82 1017.31 1016.84 1016.39 1015.94 1015.48 1015.01 1014.52 1014.03 1013.55 1013.12 1012.75 1012.49 1012.33 1012.29 1012.36 1012.54 1012.80 1013.11 1013.43 1013.75 1014.05 1014.31 1014.54 1014.74 1014.93 1015.15
1022.86 1023.18 1023.48 1023.70 1023.82 1023.82 1023.68 1023.40 1022.99 1022.47 1021.88 1021.23 1020.56 1019.91 1019.30 1018.75 1018.25 1017.80 1017.39 1017.00 1016.61 1016.22 1015.80 1015.37 1014.93 1014.49 1014.09 1013.74 1013.46 1013.28 1013.19 1013.21 1013.31 1013.49 1013.71 1013.97 1014.23 1014.48 1014.73 1014.96 1015.20 1015.45 1015.74
1023.32 1023.64 1023.91 1024.11 1024.21 1024.19 1024.03 1023.75 1023.35 1022.85 1022.27 1021.66 1021.04 1020.43 1019.87 1019.36 1018.90 1018.49 1018.12 1017.76 1017.40 1017.04 1016.65 1016.24 1015.82 1015.41 1015.02 1014.67 1014.39 1014.18 1014.06 1014.02 1014.06 1014.16 1014.32 1014.51 1014.71 1014.93 1015.16 1015.40 1015.66 1015.96 1016.30
1023.79 1024.07 1024.31 1024.49 1024.57 1024.54 1024.40 1024.14 1023.77 1023.32 1022.81 1022.26 1021.71 1021.17 1020.66 1020.19 1019.76 1019.37 1019.00 1018.65 1018.28 1017.91 1017.51 1017.10 1016.68 1016.26 1015.87 1015.52 1015.22 1015.00 1014.85 1014.77 1014.76 1014.81 1014.91 1015.04 1015.20 1015.39 1015.60 1015.83 1016.11 1016.42 1016.79
1024.22 1024.47 1024.67 1024.82 1024.89 1024.87 1024.76 1024.55 1024.25 1023.88 1023.46 1023.00 1022.53 1022.06 1021.61 1021.18 1020.78 1020.38 1020.00 1019.61 1019.21 1018.80 1018.36 1017.92 1017.47 1017.04 1016.63 1016.26 1015.95 1015.71 1015.54 1015.43 1015.39 1015.40 1015.46 1015.55 1015.68 1015.84 1016.03 1016.26 1016.53 1016.85 1017.22
1024.60 1024.80 1024.97 1025.10 1025.17 1025.18 1025.11 1024.96 1024.75 1024.48 1024.16 1023.80 1023.43 1023.04 1022.65 1022.26 1021.86 1021.46 1021.05 1020.62 1020.16 1019.69 1019.20 1018.71 1018.22 1017.74 1017.31 1016.92 1016.60 1016.34 1016.14 1016.02 1015.95 1015.93 1015.96 1016.03 1016.14 1016.28 1016.45 1016.66 1016.92 1017.22 1017.58
1024.92 1025.08 1025.22 1025.34 1025.43 1025.46 1025.45 1025.38 1025.26 1025.09 1024.88 1024.63 1024.34 1024.04 1023.70 1023.34 1022.96 1022.54 1022.10 1021.62 1021.11 1020.58 1020.03 1019.48 1018.95 1018.43 1017.97 1017.55 1017.20 1016.92 1016.71 1016.56 1016.47 1016.43 1016.44 1016.49 1016.57 1016.69 1016.85 1017.04 1017.28 1017.56 1017.88
Thickness
5576 5568 5561 5553 5546 5538 5531 5524 5519 5513 5509 5505 5501 5497 5491 5484 5478 5471 5465 5460 5455 5452 5450 5449 5448 5448 5449 5450 5451 5452 5453 5454 5460 5464 5464 5466 5467 5469 5471 5473 5474 5475 5475
5566 5558 5550 5543 5536 5529 5523 5517 5512 5507 5503 5499 5495 5489 5482 5474 5467 5461 5455 5449 5445 5442 5441 5439 5439 5441 5442 5444 5446 5448 5450 5452 5455 5460 5462 5462 5464 5466 5468 5469 5470 5470 5468
5556 5548 5540 5533 5527 5521 5515 5511 5506 5502 5497 5493 5487 5481 5473 5465 5457 5450 5444 5439 5435 5432 5431 5430 5431 5432 5435 5438 5442 5444 5447 5450 5451 5455 5459 5460 5462 5464 5465 5465 5463 5462 5462
5546 5538 5531 5524 5519 5513 5509 5505 5500 5495 5490 5485 5479 5472 5463 5455 5447 5440 5434 5428 5425 5423 5422 5422 5424 5425 5429 5433 5437 5440 5442 5445 5448 5452 5457 5460 5461 5463 5462 5461 5458 5456 5455
5535 5528 5522 5516 5511 5506 5502 5497 5493 5488 5483 5477 5469 5461 5453 5444 5436 5429 5423 5420 5416 5415 5415 5416 5417 5421 5425 5428 5431 5435 5439 5444 5448 5453 5457 5460 5461 5462 5462 5459 5455 5452 5451
5525 5519 5513 5508 5503 5499 5494 5490 5485 5480 5473 5466 5459 5450 5442 5434 5426 5419 5414 5410 5408 5407 5408 5409 5411 5416 5419 5423 5427 5433 5438 5444 5450 5455 5459 5461 5463 5463 5461 5458 5454 5453 5450
5516 5511 5506 5501 5497 5493 5489 5483 5477 5470 5463 5455 5448 5439 5430 5422 5415 5408 5404 5401 5400 5400 5401 5403 5407 5412 5414 5419 5425 5433 5440 5447 5453 5458 5461 5464 5464 5463 5460 5456 5453 5449 5444
5508 5503 5499 5495 5491 5487 5482 5476 5468 5461 5453 5445 5437 5428 5419 5411 5404 5399 5396 5393 5393 5395 5397 5399 5403 5407 5412 5416 5423 5433 5443 5451 5459 5464 5466 5466 5465 5463 5461 5456 5450 5445 5440
5502 5498 5495 5492 5487 5482 5476 5469 5461 5452 5443 5434 5425 5416 5407 5400 5394 5391 5389 5387 5388 5390 5393 5397 5401 5405 5410 5415 5423 5434 5444 5453 5461 5466 5467 5466 5464 5461 5457 5453 5448 5445 5440
5497 5495 5492 5489 5484 5478 5471 5463 5454 5444 5433 5423 5413 5404 5397 5390 5386 5384 5382 5381 5382 5385 5391 5396 5400 5403 5409 5416 5424 5434 5444 5452 5457 5460 5460 5458 5456 5453 5452 5450 5448 5445 5440
5494 5492 5489 5485 5480 5473 5464 5455 5444 5433 5421 5411 5401 5393 5387 5382 5379 5378 5377 5376 5377 5381 5387 5392 5398 5403 5409 5418 5427 5436 5444 5449 5453 5455 5454 5452 5450 5448 5446 5445 5443 5442 5440
5491 5488 5484 5479 5472 5465 5453 5442 5431 5420 5409 5399 5390 5383 5378 5375 5373 5372 5373 5373 5374 5378 5383 5389 5396 5402 5410 5420 5430 5438 5445 5449 5451 5451 5450 5447 5445 5443 5441 5440 5439 5439 5439
5487 5482 5475 5468 5459 5450 5439 5428 5417 5407 5397 5388 5379 5374 5370 5369 5368 5368 5369 5371 5374 5378 5383 5389 5396 5404 5412 5422 5431 5439 5445 5447 5448 5448 5446 5443 5440 5438 5436 5435 5435 5435 5436
5479 5472 5464 5454 5444 5435 5426 5417 5407 5397 5387 5379 5373 5368 5365 5364 5363 5364 5365 5368 5372 5377 5382 5389 5396 5404 5413 5421 5429 5436 5441 5443 5444 5443 5440 5437 5435 5433 5432 5431 5431 5432 5433
5471 5463 5453 5443 5433 5423 5415 5406 5398 5390 5382 5374 5368 5363 5361 5361 5359 5358 5360 5363 5367 5373 5380 5388 5395 5403 5411 5419 5426 5431 5435 5437 5438 5438 5437 5434 5432 5430 5428 5428 5429 5431 5432
5461 5453 5444 5434 5425 5415 5407 5399 5392 5385 5379 5372 5366 5360 5358 5356 5356 5357 5359 5363 5367 5373 5379 5385 5392 5399 5406 5414 5420 5426 5430 5433 5434 5434 5434 5432 5430 5429 5427 5427 5428 5429 5431
5452 5443 5435 5427 5419 5410 5402 5394 5387 5381 5375 5369 5364 5359 5356 5355 5355 5357 5359 5363 5368 5372 5378 5383 5389 5396 5402 5409 5415 5421 5426 5428 5430 5431 5431 5430 5429 5428 5427 5427 5427 5428 5430
5445 5437 5428 5420 5411 5404 5396 5389 5382 5375 5370 5365 5362 5359 5356 5355 5355 5357 5359 5363 5368 5372 5376 5381 5387 5393 5399 5405 5411 5416 5421 5424 5426 5428 5428 5428 5428 5427 5427 5427 5427 5428 5430
5439 5430 5422 5414 5406 5398 5392 5385 5378 5372 5367 5363 5360 5359 5356 5355 5356 5357 5359 5362 5365 5370 5375 5380 5385 5391 5396 5401 5407 5412 5416 5420 5422 5424 5425 5426 5426 5426 5427 5427 5428 5428 5430
5433 5426 5417 5409 5401 5394 5387 5381 5375 5370 5366 5362 5359 5356 5355 5355 5355 5357 5358 5361 5364 5368 5373 5378 5383 5388 5393 5398 5403 5407 5411 5415 5418 5420 5422 5423 5425 5425 5426 5427 5428 5429 5429
5429 5421 5414 5405 5398 5391 5384 5378 5372 5368 5363 5359 5356 5353 5351 5353 5353 5354 5357 5359 5362 5366 5370 5376 5381 5386 5390 5395 5399 5403 5407 5410 5413 5416 5419 5421 5423 5424 5426 5427 5428 5429 5428
5426 5417 5410 5402 5395 5388 5381 5375 5370 5365 5361 5358 5355 5353 5351 5351 5352 5353 5355 5358 5361 5364 5367 5372 5378 5383 5387 5391 5395 5399 5402 5406 5410 5413 5416 5419 5421 5423 5425 5427 5427 5427 5427
5424 5415 5407 5399 5392 5385 5378 5372 5368 5363 5359 5356 5354 5352 5350 5350 5350 5351 5353 5355 5358 5362 5365 5369 5374 5379 5384 5388 5392 5396 5399 5402 5406 5410 5414 5416 5419 5421 5423 5425 5426 5425 5424
5424 5414 5405 5397 5389 5382 5376 5370 5366 5362 5358 5355 5352 5350 5348 5348 5348 5348 5350 5352 5355 5359 5362 5366 5370 5374 5380 5385 5390 5394 5397 5400 5404 5407 5411 5413 5416 5418 5420 5422 5422 5423 5422
5422 5413 5404 5395 5388 5380 5374 5369 5364 5360 5356 5353 5350 5348 5346 5346 5346 5346 5347 5349 5352 5356 5359 5363 5367 5371 5377 5382 5387 5392 5396 5399 5402 5405 5407 5410 5412 5414 5416 5418 5419 5419 5419
5421 5413 5404 5395 5386 5379 5373 5368 5363 5359 5355 5351 5348 5345 5344 5343 5343 5343 5345 5347 5350 5353 5356 5360 5364 5369 5374 5380 5385 5391 5395 5399 5401 5403 5405 5407 5409 5411 5413 5414 5416 5416 5416